Wind_Speed
19 17 16 16 15 15 16 17 17 18 21 23 24 25 24 24 24 25 29 30 31 31 33 34 34 33 14 3 9 12 6 10 11 11 12 5 6 4 6 8 10 8 8 12 10 10 9
20 18 17 17 17 17 18 17 18 21 21 22 21 21 20 21 23 25 28 32 35 34 32 32 32 20 3 6 4 3 7 11 12 7 11 11 5 9 6 6 6 8 13 10 9 12 11
22 20 19 19 18 18 18 20 20 20 18 18 16 15 17 20 22 26 30 33 35 34 33 29 22 9 4 15 12 13 11 10 11 5 3 9 18 3 8 7 8 10 12 11 15 17 12
23 22 21 21 19 19 20 20 18 16 14 13 12 13 16 20 25 28 31 33 35 35 29 24 18 3 7 14 11 14 12 14 15 10 9 14 14 2 3 7 7 12 7 5 16 16 15
24 24 24 22 21 21 20 17 14 13 11 10 10 12 17 21 24 28 30 32 34 28 24 16 4 5 8 12 5 0 7 10 19 14 18 18 7 4 6 4 5 6 9 11 8 10 6
27 27 26 24 23 21 19 16 13 11 9 9 11 14 17 19 22 25 26 29 17 10 6 2 5 4 7 3 11 22 13 14 9 8 8 5 4 5 4 2 5 7 8 6 6 8 12
30 30 29 29 25 22 20 16 13 9 8 11 12 12 14 18 21 19 26 13 8 5 10 7 13 11 22 25 30 10 17 8 8 5 8 7 4 8 11 14 12 9 10 6 7 15 7
32 32 31 31 28 23 19 15 12 10 10 10 9 11 14 16 18 14 12 7 7 6 11 19 22 20 28 20 8 10 2 4 5 6 7 4 11 15 14 13 6 7 9 10 7 10 9
35 34 34 34 27 21 16 13 10 9 7 8 7 10 13 15 15 9 10 14 14 13 4 12 6 6 2 6 4 7 6 3 8 7 10 8 10 10 7 6 7 8 8 9 12 8 7
37 36 37 28 22 17 14 11 9 8 5 7 6 9 12 18 5 16 2 16 13 10 4 5 4 3 3 4 5 9 7 3 4 5 6 5 5 6 7 7 5 14 8 13 12 5 7
39 38 35 26 21 15 11 10 8 7 4 7 9 8 10 12 12 8 13 20 16 2 5 7 4 9 4 5 6 7 7 4 5 7 5 6 7 10 12 11 11 17 9 11 5 6 7
40 38 27 24 20 17 14 11 7 5 5 8 11 10 9 7 9 13 17 20 8 4 6 4 6 6 4 8 4 5 7 6 4 3 7 11 7 6 12 17 12 9 5 8 5 2 11
37 29 28 25 20 17 13 8 3 3 5 8 10 12 9 10 5 17 20 9 4 3 6 3 2 4 6 4 5 6 5 5 5 3 4 9 17 15 15 17 16 11 2 6 4 4 12
31 32 27 24 17 12 8 3 0 4 5 6 9 10 11 12 11 13 10 3 5 7 11 8 8 11 4 5 5 6 7 13 7 6 9 10 23 8 5 11 13 8 15 9 5 5 9
32 27 25 19 12 7 5 3 1 3 5 7 9 10 7 13 7 5 1 2 5 2 6 7 9 6 5 5 5 3 6 16 13 12 11 12 21 23 10 12 7 8 6 7 10 12 8
24 17 14 13 10 8 6 5 4 5 6 6 6 7 11 19 8 2 2 7 6 4 7 9 5 4 7 7 9 8 6 7 12 11 9 9 9 11 8 7 16 5 6 9 4 13 20
20 16 15 13 9 7 7 7 7 8 6 2 2 2 3 3 11 3 5 7 9 10 12 5 6 13 13 15 11 9 9 16 13 11 20 15 5 6 5 5 10 10 8 5 5 3 8
19 15 11 10 9 8 8 9 7 6 6 6 2 2 2 13 4 3 5 3 3 8 12 11 11 16 18 16 16 17 19 17 21 21 19 21 7 11 16 14 13 14 15 10 2 6 2
16 14 13 14 11 9 7 5 5 4 7 2 2 3 6 9 3 3 7 14 16 16 16 9 11 11 16 19 16 12 15 14 8 13 3 8 4 7 9 9 6 10 12 2 2 2 4
15 14 12 11 10 8 7 5 3 3 4 3 1 1 2 2 2 2 6 11 14 9 18 14 18 16 14 16 17 12 20 16 17 13 15 10 4 9 10 7 10 13 14 13 6 2 4
17 14 14 13 11 9 8 6 4 3 3 3 1 3 1 2 3 7 6 9 14 15 10 11 10 13 14 7 6 6 9 14 19 24 15 6 6 9 13 16 17 17 18 18 19 13 10
15 15 14 11 9 9 8 6 4 4 5 0 2 1 3 3 6 6 6 5 15 18 14 15 13 14 13 7 9 14 5 3 6 8 5 2 9 10 20 19 16 18 21 16 18 19 17
14 13 12 11 11 9 8 7 6 4 8 4 4 5 3 4 3 2 4 9 14 15 5 10 8 14 11 11 8 11 11 12 14 13 6 3 3 3 8 9 10 12 17 19 20 20 15
14 14 13 13 13 12 10 8 7 7 8 2 3 1 1 3 3 5 12 14 14 14 12 12 10 6 9 6 10 11 19 20 18 22 16 13 9 4 6 2 8 10 8 13 18 20 13
16 16 16 16 15 14 12 10 9 7 8 7 6 1 1 4 5 12 11 15 14 13 13 14 9 11 8 4 4 4 5 6 11 24 20 18 12 6 5 7 10 14 13 12 3 11 14
18 19 19 18 16 15 14 11 10 10 9 8 7 9 2 1 5 6 11 9 10 8 7 6 9 10 4 2 3 3 6 4 7 11 14 15 14 9 5 5 7 1 4 1 4 6 6
22 22 21 20 20 19 17 16 13 11 11 10 7 6 2 2 7 4 4 5 6 6 6 7 7 5 2 2 3 6 3 6 4 7 11 6 4 14 14 8 6 3 7 3 4 4 12
27 27 26 26 24 21 21 19 17 14 11 10 7 11 9 3 9 11 13 12 9 5 6 4 7 3 3 3 3 2 3 3 5 8 10 9 5 4 2 4 7 2 3 5 5 2 4
34 33 33 31 29 27 25 22 18 14 13 10 8 11 12 6 6 22 28 28 25 22 9 3 5 7 3 2 3 3 3 2 4 4 9 5 3 3 3 3 3 6 6 9 10 7 10
Wind_Direction
247 249 253 260 266 274 279 284 293 299 304 308 312 315 313 320 322 323 322 323 322 322 324 326 328 332 341 298 252 255 338 339 306 278 249 277 331 345 338 316 327 309 312 325 332 334 311
250 251 253 258 264 272 281 286 293 298 302 304 309 312 317 322 323 324 323 320 319 318 320 323 325 331 300 269 259 320 332 312 289 304 357 10 352 339 298 297 322 309 314 311 313 297 289
249 249 253 257 264 276 281 287 290 293 296 300 307 312 318 322 323 322 321 318 315 314 317 321 325 323 249 246 298 290 294 290 292 311 325 335 322 1 321 310 284 311 305 303 279 267 264
248 252 253 259 268 270 277 282 286 289 292 298 308 315 319 323 323 323 323 319 314 311 312 316 318 268 250 273 298 304 283 269 237 243 329 326 303 349 249 265 295 288 285 263 272 267 253
249 253 255 262 262 266 272 274 277 282 290 295 304 314 319 322 326 329 326 321 312 311 304 297 288 203 264 313 255 6 325 340 329 323 321 304 299 207 293 275 316 244 258 276 303 321 18
249 250 255 253 256 260 262 262 264 271 284 294 309 316 321 327 330 335 333 328 334 333 355 300 251 308 261 222 346 328 315 304 252 267 293 257 262 211 278 184 250 272 309 289 291 302 339
251 252 255 249 253 249 249 249 250 254 269 291 306 317 325 330 334 340 344 351 9 358 1 282 277 275 289 304 318 307 292 271 284 282 274 262 274 253 231 239 236 282 290 298 301 307 315
252 253 254 249 247 238 235 233 236 251 272 288 305 321 327 333 334 336 9 34 17 297 298 278 257 264 260 262 286 297 189 193 201 229 250 270 242 247 254 262 283 305 302 285 271 261 283
252 254 253 243 231 225 219 219 242 255 263 281 306 325 331 329 325 348 352 20 354 342 276 290 245 225 230 160 247 272 166 246 227 250 255 230 250 274 261 251 273 277 275 288 275 287 281
255 254 249 225 214 208 213 220 225 244 252 284 305 326 335 335 320 329 5 346 344 343 324 251 208 208 129 177 261 232 238 239 283 255 284 262 299 345 327 306 306 282 268 283 293 318 279
255 251 229 205 199 200 210 214 212 233 267 294 310 326 330 335 308 335 341 326 333 324 336 153 139 150 184 192 322 225 195 213 245 287 359 254 310 325 307 275 263 270 297 300 285 307 313
247 229 199 194 189 189 190 204 205 237 270 292 305 313 322 352 316 344 328 325 332 48 257 263 133 196 183 214 249 181 192 209 231 257 280 279 281 275 259 278 269 279 315 305 292 250 274
207 190 184 179 177 174 172 172 194 271 292 293 297 304 301 292 272 331 330 340 21 166 304 257 28 325 228 265 264 250 256 244 202 269 266 279 267 265 269 266 263 239 208 279 283 205 252
179 172 160 152 150 142 140 128 164 284 293 305 300 294 288 267 276 318 335 22 217 261 274 359 6 322 293 283 289 298 303 292 292 292 284 292 300 211 303 306 306 260 220 216 228 244 262
146 139 135 135 142 141 160 163 231 273 295 300 301 303 258 284 249 287 351 228 218 224 333 7 340 287 292 299 270 331 267 272 278 262 259 278 269 293 265 290 293 305 240 225 262 268 277
134 139 142 143 150 156 186 208 245 266 274 304 342 311 271 263 225 211 229 244 249 270 355 349 314 288 296 320 330 337 293 293 306 321 304 272 276 285 311 314 294 252 286 298 295 265 260
139 144 142 139 150 187 217 238 246 253 261 267 256 263 271 237 194 190 215 222 259 266 314 321 279 266 277 284 275 289 264 310 308 325 330 313 248 281 324 267 280 306 312 333 316 289 276
136 143 156 178 187 192 205 215 209 222 207 172 237 209 160 162 196 223 237 246 282 287 308 301 299 291 286 286 287 269 268 260 309 310 307 299 265 275 265 278 291 287 282 287 212 278 270
148 158 168 175 191 173 174 191 188 193 183 161 211 224 214 173 225 235 281 278 281 287 284 291 276 283 301 288 288 270 271 274 272 301 322 336 289 298 284 303 264 253 269 101 157 249 225
159 167 168 167 166 168 170 170 183 191 194 200 309 280 251 175 298 291 296 287 281 282 282 284 288 282 292 282 277 276 282 274 273 256 287 304 251 240 248 261 300 291 281 277 259 220 272
165 170 171 174 178 180 174 183 206 196 175 179 351 259 249 229 246 228 251 277 287 290 287 295 293 278 280 275 297 285 312 300 298 276 257 247 242 240 261 264 271 269 276 277 274 263 223
169 175 178 183 177 174 176 180 169 191 165 200 164 171 342 314 302 292 268 252 283 292 290 303 293 309 308 247 257 286 286 305 272 323 264 79 269 256 256 253 260 272 266 270 268 263 258
171 180 186 192 192 189 193 194 194 191 184 226 242 312 131 252 260 271 238 268 280 292 297 305 307 307 283 287 339 296 265 253 244 266 259 236 218 236 261 226 249 256 257 246 256 257 249
186 193 193 195 199 198 200 199 199 208 207 308 336 56 360 268 261 264 286 298 308 318 319 298 295 247 254 237 318 267 255 253 252 249 243 249 234 255 274 230 254 231 203 222 233 249 254
200 202 204 204 207 210 209 204 205 214 226 242 272 329 91 278 313 297 305 311 332 322 316 303 328 348 321 339 283 287 264 236 241 241 231 222 226 243 243 243 294 290 283 275 243 260 266
215 212 213 215 218 218 216 222 226 227 226 235 246 268 164 301 246 289 323 308 300 309 303 322 313 342 278 186 247 270 286 314 302 323 228 220 222 219 230 251 249 352 8 352 107 301 243
229 227 226 225 224 222 221 225 228 228 226 225 241 260 280 212 278 240 261 310 317 313 293 312 338 308 284 226 248 248 257 279 283 285 315 295 215 229 228 227 272 46 355 4 135 262 336
237 236 234 229 226 226 225 228 227 225 227 226 246 241 241 249 285 269 280 281 293 275 271 304 323 20 329 1 316 353 2 301 284 290 295 284 260 233 201 232 240 183 38 142 184 234 348
241 238 234 231 228 225 223 224 226 228 224 219 253 256 274 243 261 294 286 278 264 256 261 230 256 302 248 304 309 290 284 282 280 284 320 284 327 239 190 247 229 192 187 212 188 194 206
Height
841 842 843 844 844 845 845 844 843 841 840 839 836 834 831 827 823 820 816 811 806 802 798 795 792 787 784 781 767 759 758 757 755 753 752 752 753 755 762 757 751 750 743 734 731 730 730
840 840 841 841 842 842 843 842 840 839 838 836 833 832 830 826 822 818 813 809 803 798 795 792 789 785 786 786 756 757 757 757 756 754 752 751 755 752 757 755 759 746 743 740 734 732 728
837 837 838 839 839 840 840 840 838 837 835 833 830 829 827 824 820 816 810 804 798 793 792 790 787 785 783 770 757 754 756 756 754 753 752 752 753 754 756 758 743 746 753 744 734 727 730
833 835 835 837 836 837 837 837 837 835 833 831 829 828 826 823 819 814 807 800 793 788 786 784 785 785 776 756 753 756 753 753 751 751 753 752 750 751 754 750 749 756 754 763 728 723 714
829 832 833 834 834 835 835 834 834 833 832 831 828 826 825 821 817 812 804 796 787 783 781 780 783 782 769 757 753 751 756 753 752 751 750 751 750 754 754 764 772 757 767 757 742 721 719
825 826 829 830 830 831 832 832 832 831 831 830 828 826 824 820 816 810 803 792 782 779 778 778 778 782 762 754 753 751 752 755 753 752 754 753 756 762 762 773 786 767 761 751 750 732 727
820 822 825 826 826 827 828 829 830 828 829 829 827 825 822 820 815 810 803 791 794 786 784 782 776 772 756 752 750 749 749 749 751 753 766 757 771 772 763 752 746 747 750 755 743 728 737
815 817 820 822 823 823 825 827 828 827 828 829 826 824 822 818 815 811 808 805 808 809 795 771 765 762 758 756 756 747 745 754 753 763 755 764 769 747 739 739 741 745 752 753 741 727 731
809 811 813 815 818 821 823 823 826 827 826 827 824 823 821 818 814 812 810 809 807 806 804 767 752 749 748 751 754 747 744 746 754 755 752 760 747 730 733 739 744 747 753 749 749 737 730
803 806 808 810 814 818 820 822 822 825 823 827 823 821 820 817 816 812 810 808 807 806 810 765 752 749 748 750 755 739 740 747 746 750 744 743 729 735 740 745 742 751 739 737 740 747 760
796 799 800 804 810 814 820 820 819 823 822 826 825 819 820 820 819 815 813 808 806 805 816 748 750 745 744 752 747 741 737 742 751 750 750 752 742 745 747 742 736 738 732 738 738 751 751
788 791 797 802 806 810 813 819 818 820 820 822 824 821 820 822 820 818 811 808 807 818 810 751 743 750 752 748 745 738 739 737 736 745 745 746 735 738 734 726 727 726 733 739 740 749 762
781 787 792 798 804 806 810 814 817 819 819 821 821 821 820 821 820 816 812 810 824 826 759 751 749 744 744 746 744 741 745 750 757 760 760 744 736 731 724 732 724 729 742 767 771 767 758
779 784 789 793 804 804 808 811 813 818 819 818 819 819 819 818 818 818 815 817 821 782 770 746 759 756 758 747 748 747 750 750 741 744 749 757 745 725 718 727 730 727 732 754 758 759 744
778 785 786 791 798 802 809 810 813 816 818 817 817 817 817 814 817 818 821 834 802 775 769 771 767 764 759 749 752 751 754 747 742 740 755 753 745 716 719 716 723 727 733 721 732 727 739
774 783 789 790 797 802 809 811 814 815 816 816 815 815 812 811 816 817 822 811 790 775 774 777 784 771 770 767 769 765 756 738 740 735 735 737 747 723 718 716 711 722 717 734 735 741 738
776 783 788 793 799 804 808 809 810 813 814 814 815 814 807 805 813 816 816 804 788 781 781 782 780 778 774 772 770 768 758 743 743 739 742 743 742 739 725 726 729 724 725 726 723 730 738
777 785 791 795 799 803 806 809 807 810 811 812 812 815 804 806 814 810 805 793 787 782 784 783 780 781 777 772 769 765 759 756 746 749 751 741 743 746 738 724 720 724 725 725 741 747 749
781 787 793 796 800 801 805 808 807 809 809 810 810 807 804 803 806 806 799 792 790 787 786 781 777 773 772 773 777 762 755 749 750 751 749 747 748 744 734 732 725 726 719 724 733 747 749
785 789 794 799 800 802 805 807 809 808 809 809 810 812 805 805 801 801 803 798 794 785 782 780 774 771 775 774 768 763 755 745 743 743 744 747 744 743 752 739 735 735 726 723 728 753 745
785 791 795 798 800 802 803 805 809 809 809 810 809 810 802 814 808 802 800 796 795 790 782 778 774 778 777 779 776 771 762 760 748 737 737 740 751 750 743 736 731 728 724 721 721 722 742
785 790 794 797 800 803 803 803 805 807 806 810 812 812 804 806 804 802 801 797 792 786 782 776 779 781 785 780 774 774 774 767 760 746 737 739 743 740 741 730 730 732 720 721 718 714 713
786 791 793 796 799 802 804 803 804 807 808 806 806 805 808 806 805 807 806 792 786 785 783 779 784 787 783 777 773 769 766 762 759 760 746 741 745 739 729 726 726 734 715 714 706 702 702
784 788 792 795 799 799 801 801 803 807 808 808 808 809 812 811 802 797 788 784 783 782 779 772 769 775 770 767 767 760 754 747 741 734 736 735 736 736 732 726 730 700 693 693 695 688 691
783 787 791 794 797 797 799 798 801 804 806 809 808 810 812 813 800 795 790 787 785 783 781 777 771 770 766 769 768 761 747 732 720 715 718 720 731 731 727 717 705 693 690 688 692 694 689
782 785 789 790 792 794 795 798 798 802 806 810 807 809 809 813 803 793 798 792 793 789 784 775 768 767 765 769 767 763 748 737 726 711 695 709 717 727 726 725 715 684 679 672 681 703 677
779 781 783 784 788 789 790 794 796 800 806 806 805 806 808 813 792 797 798 796 794 793 792 780 777 769 763 778 776 754 751 731 735 722 713 712 719 715 707 715 705 689 690 677 700 705 697
772 774 777 779 781 783 788 791 795 799 799 802 802 804 807 804 792 793 791 793 790 789 792 784 786 775 771 768 769 755 754 755 744 729 729 718 714 717 708 710 703 694 694 700 695 703 703
762 764 767 770 774 780 784 787 790 794 796 799 801 802 802 801 791 787 785 784 783 781 784 782 780 779 776 777 771 765 755 753 749 751 719 718 705 714 714 707 685 689 685 686 685 686 687